星链-6083 (STARLINK-6083 )

导读

STARLINK-6083是美国太空探索技术公司SpaceX星链星座的成员,于2023年3月29日发射,属于低轨互联网卫星。星链计划旨在构建覆盖全球的近地轨道卫星群,提供全球高速互联网接入,STARLINK-6083这类卫星通常配备激光通信终端,可实现星间高速通信,支撑星座全球覆盖能力。该卫星目前在近地轨道服役,是星链星座大规模组网建设的组成部分。

Basic Information
目录编号:
56109
目录名称:
STARLINK-6083
国际标识:
2023-046S
轨道中心:
EARTH
卫星名称:
星链-6083
卫星全名:
星链-6083 (STARLINK-6083 )
卫星状态:
在轨 (已飞行1262 天)
发射日期:
2023-03-29 UTC
国别 :
美国 (US)
星等 :
--
This satellite is enrolled in the Space Conjunction Data Service (SCDS) and the current flight risk assessment level is: High Risk
Orbit Information
数据来源 国际轨道数据 AOE轨道数据
星历时间 2026-09-11T11:50:28+0800
11小时前
查看轨道信息
2026-09-06T22:00:00+0800
5天前
查看轨道信息
半长轴 6861.202km 6861.184km
偏心率 0.0001285 0.00003
轨道倾角 43.004° 43.002°
近地点辐角 279.382° 240.336°
升交点赤经 194.385° 220.232°
平近点角 80.688° 121.621°
近地点 482.183km 482.841km
远地点 483.947km 483.253km
周期 94.267分钟 94.267分钟
每日圈数 15.275748 15.275807
Detailed Information
固有亮度:
5
最大亮度:
2.5
卫星平台:
Starlink v1.5
覆盖范围:
全球
运营商:
太空探索技术公司
运营商所在国:
美国
制造商(研发单位):
太空探索技术公司
制造商所在国:
美国
使用方式:
暂无
Satellite Introduction
星链(Starlink)计划是由太空探索技术公司(SpaceX)提出的一个巨型低轨卫星互联网星座项目,计划在2019年至2024年间在太空搭建由约1.2万颗卫星组成的“星链”网络,其中1584颗将部署在地球上空550千米处的近地轨道,并从2020年开始工作。该卫星仍在工作。
2D Orbit Map
3D Orbit Map
Orbit Altitude Analysis Chart
Orbit Inclination Analysis Chart
Orbit Comprehensive Analysis Chart
View Comprehensive Chart
Conjunction Data List
Event ID Objects TCA Miss Dist (km) Collision Risk Probability Collision Risk Index (CRI) Action
CDM_260913-075105-610905-800121
2026-09-13T
07:51:01+0000
0.275 km
中距离
4.351497E-4 高风险 0.88
CDM_260913-092505-610905-800121
2026-09-13T
09:25:11+0000
0.855 km
远距离
2.912614E-5 中风险 0.64
CDM_260912-004705-610906-726221
OBJECT Q (67262)
2026-09-12T
00:47:16+0000
1.098 km
极远距离
1.855532E-5 中风险 0.6
CDM_260912-143905-610906-340921
2026-09-12T
14:39:59+0000
1.049 km
极远距离
1.042647E-5 中风险 0.55
CDM_260913-061605-610905-800121
2026-09-13T
06:16:52+0000
1.336 km
极远距离
6.296968E-6 低风险 0.51
CDM_260911-071704-079705-610922
2026-09-11T
07:17:16+0000
1.400 km
极远距离
4.893081E-6 低风险 0.49
CDM_260912-200905-610906-340921
2026-09-12T
20:09:31+0000
1.503 km
极远距离
3.139881E-6 低风险 0.45
CDM_260913-105905-610905-800121
2026-09-13T
10:59:20+0000
1.960 km
极远距离
1.995985E-6 低风险 0.41
CDM_260913-141205-610906-429221
2026-09-13T
14:12:04+0000
2.434 km
极远距离
1.468571E-6 低风险 0.38
CDM_260913-052505-610905-977422
OBJECT B (59774)
2026-09-13T
05:25:56+0000
2.953 km
极远距离
1.32738E-6 低风险 0.37
Miss Distance Evolution Trend with All Objects
Collision Probability Evolution Trend with All Objects